Location: Appeville
(49.3218°N, 1.3427°W)
Time: 05:05:37
(UTC+00:00)

Okean O Rocket - Pass Details

Date: 08 December 2019
Orbit: 624 x 644 km, 98.2° (Epoch: 24 January)

Event Time Altitude Azimuth Distance (km) Brightness Sun altitude
Rises 05:09:31 0° 21° (NNE) 2,929 5.2 -24.6°
Reaches altitude 10° 05:11:54 10° 31° (NNE) 2,019 4.5 -24.2°
Maximum altitude 05:15:54 34° 97° (E) 1,044 3.3 -23.6°
Drops below altitude 10° 05:19:55 10° 163° (SSE) 2,015 4.5 -22.9°
Sets 05:22:16 0° 172° (S) 2,922 5.2 -22.5°
